[[{"header":{"parameterUnit":"m.s-1","parameterCategory":1,"la1":30.2991,"la2":30.254,"lo1":-89.0895,"lo2":-89.0444,"dy":0.0017,"dx":0.0017,"nx":28,"ny":28,"refTime":"2024-06-09T09:00:00:Z","depth":0,"parameterNumber":2,"parameterNumberName":"U-component_of_WINDS"},"data":[0,0,0,0,0,0,0,0,0,0,0,0,0,0,0,0,0,0,0,0,0,0,0,0,0,0,0,0,0,0,0,0,0,0,0,0,0,0,0,0,0,0,0,0,0,0,0,0,0,0,0,0,0,0,0,0,0,0,4.0212,4.0213,0,4.0285,4.0286,4.0287,4.0197,4.0193,4.019,4.0187,4.0261,4.0266,4.0271,0,0,0,0,0,0,0,0,0,0,0,0,0,3.9993,3.9997,4.0212,4.0213,4.0214,4.0285,4.0286,4.0287,4.0197,4.0193,4.0189,4.0185,4.0259,4.0265,4.0272,0,0,0,0,0,0,0,0,0,0,0,0,0,4.0079,3.9999,4.0212,4.0178,4.0175,4.0285,4.0286,4.0287,4.0198,4.0193,4.0188,4.0184,4.0257,4.0265,4.0272,4.0419,0,0,4.0296,4.0299,0,0,0,0,0,0,0,0,4.0074,4.0087,4.0182,4.018,4.0178,4.0227,4.0236,4.0331,4.0199,4.019,4.0187,4.0181,4.0254,4.0261,4.0286,4.0422,4.0425,4.0296,4.0301,4.0304,4.0306,0,0,0,0,0,0,0,4.0068,4.0083,4.0241,4.0183,4.0181,4.0158,4.0165,4.0253,4.0249,4.019,4.0184,4.0194,4.0252,4.0279,4.0287,4.0426,4.0296,4.0303,4.0307,4.031,4.0682,4.0687,0,0,0,0,0,0,4.0067,4.0079,4.0239,4.0243,4.0113,4.0166,4.0173,4.0216,4.0247,4.0247,4.0198,4.0189,4.0268,4.0278,4.0289,4.0459,4.0304,4.0311,4.0316,4.0676,4.0683,4.0688,0,0,0,0,0,0,4.0062,4.0082,4.0236,4.0159,4.0177,4.0175,4.0224,4.022,4.0247,4.0253,4.0252,4.0226,4.0265,4.0278,4.0386,4.046,4.0315,4.0322,4.067,4.0678,4.0686,4.0801,0,0,0,0,0,0,4.0056,4.0081,4.0137,4.0161,4.0182,4.0333,4.0228,4.0225,4.026,4.025,4.028,4.028,4.0262,4.0375,4.0394,4.0468,4.0327,4.0663,4.0674,4.0683,4.0791,4.0812,4.0831,0,0,0,0,0,4.0049,4.0168,4.014,4.016,4.0252,4.0337,4.0349,4.0326,4.0267,4.0322,4.0326,4.0279,4.045,4.0387,4.0407,4.0485,4.0659,4.0671,4.0682,4.0782,4.0808,4.083,0,0,0,0,0,0,4.0152,4.017,4.014,4.0271,4.0303,4.0322,4.0391,4.0355,4.0404,4.0392,4.0361,4.0369,4.0483,4.0495,4.0425,4.0626,4.0544,4.0561,4.0613,4.0638,4.0658,4.0651,4.0334,0,0,0,0,0,4.0191,4.0259,4.027,4.0384,4.0402,4.0394,4.043,4.041,4.0442,4.0455,4.0466,4.0499,4.0559,4.06,4.0656,4.0793,4.0796,4.0856,4.0876,4.0892,4.0906,4.0975,4.1,4.0728,4.0728,4.0727,0,0,4.027,4.0288,4.0333,4.0405,4.0428,4.0497,4.0406,4.0485,4.0535,4.0467,4.0568,4.0578,4.0612,4.0733,4.0788,4.0747,4.0982,4.0908,4.092,4.0925,4.099,4.1015,4.1038,4.0736,4.0734,4.0733,0,0,4.0448,4.0471,4.0566,4.059,4.0625,4.0619,4.0642,4.0666,4.0669,4.077,4.0719,4.0779,4.0885,4.091,4.0937,4.1123,4.108,4.1142,4.1245,4.1313,4.1334,4.1353,4.1415,4.1438,4.1157,4.1157,4.1157,0,4.0542,4.0645,4.0619,4.07,4.0732,4.0673,4.0768,4.0793,4.0845,4.0867,4.0822,4.0951,4.097,4.1094,4.1139,4.1165,4.1187,4.1137,4.1333,4.1352,4.1369,4.1428,4.1452,4.1164,4.1163,4.1162,4.1162,0,4.0756,4.0829,4.0901,4.0951,4.0992,4.108,4.1065,4.111,4.1085,4.1084,4.1185,4.1206,4.1264,4.1293,4.1271,4.1413,4.1386,4.1338,4.1255,4.1402,4.1457,4.148,4.1174,4.1172,4.1169,4.1168,0,0,4.1001,4.1035,4.1062,4.1082,4.1116,4.117,4.1254,4.131,4.1347,4.1385,4.1452,4.1542,4.1496,4.1527,4.1507,4.1567,4.1707,4.151,4.151,4.1542,4.1861,4.1895,4.1921,4.168,4.1685,4.1688,4.1857,0,4.1177,4.1321,4.13,4.1439,4.1503,4.1448,4.152,4.1548,4.1548,4.1602,4.1603,4.1665,4.1602,4.1619,4.1676,4.1678,4.177,4.1666,4.174,4.1743,4.1729,4.1951,4.1987,4.2145,4.1878,4.1882,4.1885,0,4.1401,4.1445,4.159,4.161,4.1636,4.1702,4.1749,4.1803,4.1832,4.1828,4.1861,4.183,4.1911,4.1829,4.194,4.1869,4.1898,4.1904,4.1909,4.1912,4.182,4.1956,4.2196,4.2218,4.1919,4.1916,4.1914,0,4.1559,4.1655,4.1753,4.1773,4.1801,4.1847,4.1861,4.1886,4.1919,4.1961,4.1982,4.2034,4.2061,4.2101,4.2083,4.2026,4.2196,4.2113,4.2192,4.2192,4.2227,4.2225,4.2471,4.2253,4.2253,4.2253,4.2252,0,4.1755,4.1844,4.1824,4.1884,4.1982,4.1957,4.2054,4.2061,4.2083,4.2142,4.2099,4.2155,4.213,4.2184,4.2171,4.2262,4.2276,4.2273,4.2267,4.2274,4.2274,4.229,4.2277,4.2259,4.2257,4.2256,4.2255,0,4.1947,4.1938,4.204,4.2057,4.2063,4.2135,4.2148,4.2204,4.2201,4.2276,4.2292,4.2287,4.2348,4.2335,4.2403,4.2394,4.2506,4.249,4.2496,4.249,4.2568,4.2559,4.283,4.2863,4.2628,4.263,4.2632,0,4.207,4.2138,4.2162,4.2198,4.2214,4.2274,4.2308,4.2285,4.2322,4.2359,4.2409,4.2466,4.251,4.261,4.2611,4.2662,4.2643,4.2735,4.2651,4.2654,4.264,4.2634,4.2639,4.2751,4.2753,4.2756,4.2757,0,4.2289,4.228,4.2331,4.2379,4.2421,4.2458,4.2491,4.2523,4.2503,4.2546,4.2607,4.2642,4.271,4.2766,4.2812,4.2824,4.2787,4.2784,4.2804,4.281,4.2809,4.2806,4.2537,4.2777,4.2775,4.2774,4.2773,4.2772,4.2447,4.2503,4.2528,4.2584,4.2607,4.2638,4.269,4.2693,4.2743,4.2796,4.278,4.2849,4.2874,4.2932,4.2951,4.3003,4.2968,4.2999,4.3006,4.3012,4.302,4.2804,4.3012,4.3012,4.3011,4.3011,4.301,0,4.2659,4.2672,4.2725,4.2772,4.2816,4.2778,4.2812,4.2851,4.2912,4.2939,4.2983,4.3052,4.3105,4.3111,4.3161,4.3202,4.3185,4.3215,4.321,4.3212,4.305,4.3026,4.3227,4.3227,4.3227,4.3227,4.3227,4.3227,4.2775,4.2866,4.286,4.2961,4.2973,4.304,4.3062,4.309,4.311,4.3189,4.3233,4.3237,4.3254,4.3305,4.3351,4.3352,4.337,4.3406,4.3399,4.3246,4.3225,4.3204,4.318,4.3411,4.3412,4.3556,4.3558,4.3559]},{"header":{"parameterUnit":"m.s-1","parameterCategory":1,"la1":30.2991,"la2":30.254,"lo1":-89.0895,"lo2":-89.0444,"dy":0.0017,"dx":0.0017,"nx":28,"ny":28,"refTime":"2024-06-09T09:00:00:Z","depth":0,"parameterNumber":3,"parameterNumberName":"V-component_of_WINDS"},"data":[0,0,0,0,0,0,0,0,0,0,0,0,0,0,0,0,0,0,0,0,0,0,0,0,0,0,0,0,0,0,0,0,0,0,0,0,0,0,0,0,0,0,0,0,0,0,0,0,0,0,0,0,0,0,0,0,0,0,2.8878,2.8879,0,2.8943,2.8944,2.8945,2.8918,2.8916,2.8915,2.8913,2.8978,2.8981,2.8984,0,0,0,0,0,0,0,0,0,0,0,0,0,2.8727,2.873,2.8878,2.8879,2.888,2.8943,2.8944,2.8945,2.8918,2.8916,2.8914,2.8912,2.8977,2.8981,2.8984,0,0,0,0,0,0,0,0,0,0,0,0,0,2.8792,2.8731,2.8878,2.8874,2.8874,2.8943,2.8944,2.8945,2.8918,2.8916,2.8914,2.8911,2.8976,2.898,2.8985,2.9061,0,0,2.8999,2.9002,0,0,0,0,0,0,0,0,2.8789,2.8798,2.8874,2.8874,2.8875,2.892,2.8914,2.8984,2.8919,2.8902,2.8913,2.891,2.896,2.8966,2.8983,2.9064,2.9066,2.9,2.9003,2.9005,2.9006,0,0,0,0,0,0,0,2.8784,2.8795,2.8904,2.8875,2.8875,2.8868,2.8874,2.8927,2.8943,2.8903,2.8901,2.8909,2.896,2.8979,2.8985,2.9067,2.9,2.9004,2.9007,2.9009,2.921,2.9212,0,0,0,0,0,0,2.878,2.8792,2.8902,2.8906,2.8825,2.8872,2.888,2.8908,2.8942,2.8946,2.8911,2.8908,2.8972,2.8979,2.8987,2.9076,2.9005,2.9009,2.9012,2.9208,2.9211,2.9213,0,0,0,0,0,0,2.8777,2.879,2.8899,2.8848,2.8861,2.8877,2.8909,2.891,2.8929,2.8949,2.8951,2.8928,2.897,2.898,2.9042,2.9078,2.9011,2.9016,2.9205,2.9208,2.9212,2.9256,0,0,0,0,0,0,2.8773,2.8789,2.8819,2.8849,2.8864,2.8954,2.8911,2.8913,2.8937,2.8934,2.8965,2.8968,2.8969,2.9035,2.9047,2.9083,2.9019,2.9201,2.9206,2.9211,2.9252,2.9261,2.9269,0,0,0,0,0,2.8767,2.8829,2.8821,2.8834,2.8902,2.8956,2.8965,2.8966,2.8941,2.897,2.8982,2.8967,2.9072,2.9042,2.9055,2.9093,2.9199,2.9205,2.921,2.9248,2.9259,2.9269,0,0,0,0,0,0,2.8803,2.8833,2.8824,2.8898,2.8925,2.8952,2.8989,2.8979,2.9013,2.9008,2.9007,2.9014,2.9078,2.9092,2.9057,2.9167,2.9132,2.914,2.9155,2.9167,2.9175,2.917,2.9023,0,0,0,0,0,2.882,2.8862,2.8886,2.8948,2.8962,2.8973,2.8997,2.8995,2.9023,2.9034,2.9051,2.9078,2.9117,2.9142,2.918,2.9253,2.9258,2.9286,2.9295,2.9302,2.9309,2.9346,2.9358,2.9232,2.9232,2.9232,0,0,2.8854,2.8876,2.8903,2.8956,2.8977,2.9019,2.8983,2.903,2.9061,2.9041,2.91,2.9113,2.9143,2.921,2.9241,2.9224,2.9345,2.9309,2.9314,2.9318,2.9353,2.9365,2.9376,2.9235,2.9235,2.9234,0,0,2.8939,2.896,2.9013,2.9034,2.9066,2.9073,2.9085,2.9114,2.9122,2.9181,2.9166,2.9202,2.927,2.9291,2.9311,2.94,2.9387,2.9412,2.9458,2.9494,2.9504,2.9513,2.9543,2.9554,2.9419,2.9419,2.942,0,2.8977,2.9042,2.9042,2.909,2.9113,2.9096,2.9149,2.9169,2.9211,2.9227,2.9207,2.929,2.9309,2.938,2.9402,2.9419,2.9432,2.9409,2.9503,2.9512,2.952,2.9549,2.956,2.9422,2.9422,2.9422,2.9421,0,2.9087,2.9132,2.9171,2.9211,2.9239,2.9289,2.9295,2.9322,2.9318,2.9326,2.9385,2.9407,2.9447,2.9464,2.946,2.9534,2.9522,2.9503,2.9467,2.9535,2.9562,2.9573,2.9426,2.9425,2.9424,2.9424,0,0,2.9197,2.9235,2.925,2.9267,2.9299,2.9333,2.9382,2.9421,2.9444,2.9473,2.9512,2.9568,2.955,2.9572,2.9571,2.9603,2.967,2.9579,2.958,2.9594,2.975,2.9764,2.9777,2.9661,2.9663,2.9665,2.9747,0,2.9282,2.9368,2.9368,2.9447,2.9487,2.947,2.9512,2.9536,2.9544,2.9578,2.9587,2.9627,2.9601,2.9613,2.9645,2.9655,2.9701,2.9649,2.9696,2.9698,2.9689,2.9791,2.9806,2.9882,2.9758,2.976,2.9761,0,2.9394,2.9426,2.9508,2.9533,2.955,2.9588,2.9622,2.9656,2.9681,2.9685,2.9709,2.9701,2.9749,2.9712,2.9776,2.9741,2.976,2.9768,2.977,2.9774,2.9733,2.9796,2.9907,2.9918,2.9778,2.9776,2.9775,0,2.9464,2.9528,2.9584,2.96,2.9631,2.9657,2.9671,2.9694,2.9717,2.9747,2.9761,2.9797,2.9816,2.9842,2.9844,2.9817,2.9908,2.9872,2.9911,2.9911,2.993,2.9929,3.0045,2.9944,2.9944,2.9944,2.9944,0,2.9559,2.961,2.9616,2.9651,2.9706,2.9705,2.976,2.9771,2.9792,2.9827,2.9815,2.9849,2.9849,2.9883,2.9884,2.9936,2.9945,2.9948,2.9947,2.9948,2.9948,2.996,2.9955,2.9947,2.9946,2.9946,2.9945,0,2.9646,2.9653,2.9713,2.9737,2.9744,2.9784,2.9803,2.9835,2.9842,2.9887,2.9897,2.9908,2.9946,2.995,2.9996,2.9996,3.0058,3.0053,3.005,3.0049,3.0087,3.0083,3.0214,3.023,3.012,3.0121,3.0122,0,2.9706,2.9745,2.9772,2.9795,2.981,2.9848,2.987,2.987,2.9894,2.9925,2.9953,2.9991,3.0021,3.0083,3.0094,3.0128,3.0122,3.0166,3.0127,3.0126,3.0121,3.0118,3.0121,3.0173,3.0174,3.0175,3.0176,0,2.9811,2.9812,2.9846,2.988,2.9908,2.9935,2.996,2.998,2.9982,3.001,3.0049,3.0073,3.0118,3.0155,3.0188,3.02,3.0188,3.0188,3.0199,3.02,3.0196,3.0197,3.0069,3.0185,3.0184,3.0183,3.0183,3.0183,2.9886,2.9918,2.9942,2.9979,2.9998,3.0022,3.0053,3.0063,3.0096,3.0133,3.013,3.0173,3.0196,3.0238,3.0254,3.0286,3.0271,3.0287,3.0291,3.0295,3.0298,3.0191,3.0292,3.0292,3.0292,3.0292,3.0291,0,2.9989,3.0003,3.0037,3.0073,3.0101,3.0088,3.0114,3.0139,3.0177,3.0199,3.0229,3.0273,3.0308,3.0321,3.0354,3.0378,3.0373,3.0387,3.0384,3.0387,3.031,3.0297,3.039,3.039,3.039,3.039,3.039,3.039,3.0046,3.0099,3.0102,3.0164,3.0178,3.022,3.0236,3.0257,3.0274,3.0324,3.0353,3.0361,3.0379,3.0414,3.0444,3.0447,3.0459,3.0475,3.0475,3.0403,3.0393,3.0383,3.0371,3.0478,3.0478,3.055,3.0551,3.0551]}]]